Year,Month,Day,Hour,Minute,Value (Times are PST for temperature in C)
2008,09,29,00,00,8.80
2008,09,29,00,01,8.80
2008,09,29,00,02,8.80
2008,09,29,00,03,8.80
2008,09,29,00,04,8.80
2008,09,29,00,05,8.80
2008,09,29,00,06,8.80
2008,09,29,00,07,8.80
2008,09,29,00,08,8.80
2008,09,29,00,09,8.80
2008,09,29,00,10,8.70
2008,09,29,00,11,8.70
2008,09,29,00,12,8.70
2008,09,29,00,13,8.70
2008,09,29,00,14,8.70
2008,09,29,00,15,8.70
2008,09,29,00,16,8.70
2008,09,29,00,17,8.80
2008,09,29,00,18,8.80
2008,09,29,00,19,8.80
2008,09,29,00,20,8.80
2008,09,29,00,21,8.80
2008,09,29,00,22,8.80
2008,09,29,00,23,8.80
2008,09,29,00,24,8.70
2008,09,29,00,25,8.70
2008,09,29,00,26,8.70
2008,09,29,00,27,8.70
2008,09,29,00,28,8.70
2008,09,29,00,29,8.70
2008,09,29,00,30,8.70
2008,09,29,00,31,8.70
2008,09,29,00,32,8.80
2008,09,29,00,33,8.80
2008,09,29,00,34,8.80
2008,09,29,00,35,8.80
2008,09,29,00,36,8.80
2008,09,29,00,37,8.80
2008,09,29,00,38,8.80
2008,09,29,00,39,8.80
2008,09,29,00,40,8.90
2008,09,29,00,41,8.90
2008,09,29,00,42,8.90
2008,09,29,00,43,8.90
2008,09,29,00,44,8.90
2008,09,29,00,45,8.80
2008,09,29,00,46,8.80
2008,09,29,00,47,8.80
2008,09,29,00,48,8.80
2008,09,29,00,49,8.80
2008,09,29,00,50,8.80
2008,09,29,00,51,8.80
2008,09,29,00,52,8.80
2008,09,29,00,53,8.80
2008,09,29,00,54,8.80
2008,09,29,00,55,8.70
2008,09,29,00,56,8.70
2008,09,29,00,57,8.70
2008,09,29,00,58,8.70
2008,09,29,00,59,8.70
2008,09,29,01,00,8.70
2008,09,29,01,01,8.70
2008,09,29,01,02,8.70
2008,09,29,01,03,8.70
2008,09,29,01,04,8.70
2008,09,29,01,05,8.70
2008,09,29,01,06,8.70
2008,09,29,01,07,8.70
2008,09,29,01,08,8.70
2008,09,29,01,09,8.60
2008,09,29,01,10,8.60
2008,09,29,01,11,8.70
2008,09,29,01,12,8.70
2008,09,29,01,13,8.70
2008,09,29,01,14,8.80
2008,09,29,01,15,8.80
2008,09,29,01,16,8.80
2008,09,29,01,17,8.90
2008,09,29,01,18,8.90
2008,09,29,01,19,9.00
2008,09,29,01,20,9.10
2008,09,29,01,21,9.20
2008,09,29,01,22,9.20
2008,09,29,01,23,9.30
2008,09,29,01,24,9.30
2008,09,29,01,25,9.30
2008,09,29,01,26,9.30
2008,09,29,01,27,9.20
2008,09,29,01,28,9.20
2008,09,29,01,29,9.20
2008,09,29,01,30,9.20
2008,09,29,01,31,9.20
2008,09,29,01,32,9.20
2008,09,29,01,33,9.20
2008,09,29,01,34,9.20
2008,09,29,01,35,9.20
2008,09,29,01,36,9.20
2008,09,29,01,37,9.30
2008,09,29,01,38,9.40
2008,09,29,01,39,9.50
2008,09,29,01,40,9.50
2008,09,29,01,41,9.60
2008,09,29,01,42,9.60
2008,09,29,01,43,9.50
2008,09,29,01,44,9.50
2008,09,29,01,45,9.40
2008,09,29,01,46,9.40
2008,09,29,01,47,9.30
2008,09,29,01,48,9.30
2008,09,29,01,49,9.20
2008,09,29,01,50,9.20
2008,09,29,01,51,9.20
2008,09,29,01,52,9.20
2008,09,29,01,53,9.20
2008,09,29,01,54,9.30
2008,09,29,01,55,9.30
2008,09,29,01,56,9.40
2008,09,29,01,57,9.40
2008,09,29,01,58,9.50
2008,09,29,01,59,9.60
2008,09,29,02,00,9.60
2008,09,29,02,01,9.70
2008,09,29,02,02,9.70
2008,09,29,02,03,9.70
2008,09,29,02,04,9.70
2008,09,29,02,05,9.70
2008,09,29,02,06,9.70
2008,09,29,02,07,9.70
2008,09,29,02,08,9.70
2008,09,29,02,09,9.70
2008,09,29,02,10,9.70
2008,09,29,02,11,9.60
2008,09,29,02,12,9.60
2008,09,29,02,13,9.60
2008,09,29,02,14,9.60
2008,09,29,02,15,9.60
2008,09,29,02,16,9.60
2008,09,29,02,17,9.60
2008,09,29,02,18,9.60
2008,09,29,02,19,9.60
2008,09,29,02,20,9.60
2008,09,29,02,21,9.60
2008,09,29,02,22,9.60
2008,09,29,02,23,9.60
2008,09,29,02,24,9.50
2008,09,29,02,25,9.50
2008,09,29,02,26,9.40
2008,09,29,02,27,9.40
2008,09,29,02,28,9.40
2008,09,29,02,29,9.40
2008,09,29,02,30,9.40
2008,09,29,02,31,9.40
2008,09,29,02,32,9.40
2008,09,29,02,33,9.30
2008,09,29,02,34,9.30
2008,09,29,02,35,9.30
2008,09,29,02,36,9.20
2008,09,29,02,37,9.20
2008,09,29,02,38,9.20
2008,09,29,02,39,9.20
2008,09,29,02,40,9.20
2008,09,29,02,41,9.20
2008,09,29,02,42,9.20
2008,09,29,02,43,9.20
2008,09,29,02,44,9.20
2008,09,29,02,45,9.20
2008,09,29,02,46,9.20
2008,09,29,02,47,9.20
2008,09,29,02,48,9.20
2008,09,29,02,49,9.20
2008,09,29,02,50,9.20
2008,09,29,02,51,9.20
2008,09,29,02,52,9.30
2008,09,29,02,53,9.30
2008,09,29,02,54,9.30
2008,09,29,02,55,9.30
2008,09,29,02,56,9.30
2008,09,29,02,57,9.30
2008,09,29,02,58,9.30
2008,09,29,02,59,9.30
2008,09,29,03,00,9.30
2008,09,29,03,01,9.30
2008,09,29,03,02,9.30
2008,09,29,03,03,9.30
2008,09,29,03,04,9.30
2008,09,29,03,05,9.30
2008,09,29,03,06,9.30
2008,09,29,03,07,9.30
2008,09,29,03,08,9.20
2008,09,29,03,09,9.20
2008,09,29,03,10,9.20
2008,09,29,03,11,9.20
2008,09,29,03,12,9.10
2008,09,29,03,13,9.10
2008,09,29,03,14,9.10
2008,09,29,03,15,9.10
2008,09,29,03,16,9.10
2008,09,29,03,17,9.20
2008,09,29,03,18,9.20
2008,09,29,03,19,9.30
2008,09,29,03,20,9.40
2008,09,29,03,21,9.50
2008,09,29,03,22,9.60
2008,09,29,03,23,9.60
2008,09,29,03,24,9.70
2008,09,29,03,25,9.70
2008,09,29,03,26,9.70
2008,09,29,03,27,9.70
2008,09,29,03,28,9.70
2008,09,29,03,29,9.80
2008,09,29,03,30,9.80
2008,09,29,03,31,9.80
2008,09,29,03,32,9.80
2008,09,29,03,33,9.80
2008,09,29,03,34,9.80
2008,09,29,03,35,9.80
2008,09,29,03,36,9.80
2008,09,29,03,37,9.70
2008,09,29,03,38,9.70
2008,09,29,03,39,9.60
2008,09,29,03,40,9.60
2008,09,29,03,41,9.60
2008,09,29,03,42,9.50
2008,09,29,03,43,9.40
2008,09,29,03,44,9.40
2008,09,29,03,45,9.40
2008,09,29,03,46,9.40
2008,09,29,03,47,9.40
2008,09,29,03,48,9.40
2008,09,29,03,49,9.40
2008,09,29,03,50,9.40
2008,09,29,03,51,9.30
2008,09,29,03,52,9.30
2008,09,29,03,53,9.30
2008,09,29,03,54,9.30
2008,09,29,03,55,9.30
2008,09,29,03,56,9.30
2008,09,29,03,57,9.30
2008,09,29,03,58,9.40
2008,09,29,03,59,9.40
2008,09,29,04,00,9.40
2008,09,29,04,01,9.50
2008,09,29,04,02,9.50
2008,09,29,04,03,9.50
2008,09,29,04,04,9.60
2008,09,29,04,05,9.60
2008,09,29,04,06,9.60
2008,09,29,04,07,9.60
2008,09,29,04,08,9.60
2008,09,29,04,09,9.60
2008,09,29,04,10,9.60
2008,09,29,04,11,9.60
2008,09,29,04,12,9.60
2008,09,29,04,13,9.60
2008,09,29,04,14,9.60
2008,09,29,04,15,9.70
2008,09,29,04,16,9.70
2008,09,29,04,17,9.80
2008,09,29,04,18,9.80
2008,09,29,04,19,9.80
2008,09,29,04,20,9.80
2008,09,29,04,21,9.80
2008,09,29,04,22,9.80
2008,09,29,04,23,9.80
2008,09,29,04,24,9.90
2008,09,29,04,25,9.90
2008,09,29,04,26,9.90
2008,09,29,04,27,9.90
2008,09,29,04,28,9.90
2008,09,29,04,29,9.90
2008,09,29,04,30,9.90
2008,09,29,04,31,9.90
2008,09,29,04,32,10.00
2008,09,29,04,33,10.10
2008,09,29,04,34,10.10
2008,09,29,04,35,10.10
2008,09,29,04,36,10.20
2008,09,29,04,37,10.20
2008,09,29,04,38,10.20
2008,09,29,04,39,10.20
2008,09,29,04,40,10.20
2008,09,29,04,41,10.30
2008,09,29,04,42,10.30
2008,09,29,04,43,10.30
2008,09,29,04,44,10.30
2008,09,29,04,45,10.30
2008,09,29,04,46,10.30
2008,09,29,04,47,10.30
2008,09,29,04,48,10.30
2008,09,29,04,49,10.30
2008,09,29,04,50,10.30
2008,09,29,04,51,10.30
2008,09,29,04,52,10.30
2008,09,29,04,53,10.30
2008,09,29,04,54,10.20
2008,09,29,04,55,10.20
2008,09,29,04,56,10.20
2008,09,29,04,57,10.10
2008,09,29,04,58,10.10
2008,09,29,04,59,10.10
2008,09,29,05,00,10.00
2008,09,29,05,01,10.00
2008,09,29,05,02,10.00
2008,09,29,05,03,10.00
2008,09,29,05,04,10.00
2008,09,29,05,05,10.00
2008,09,29,05,06,10.00
2008,09,29,05,07,10.10
2008,09,29,05,08,10.10
2008,09,29,05,09,10.10
2008,09,29,05,10,10.20
2008,09,29,05,11,10.20
2008,09,29,05,12,10.20
2008,09,29,05,13,10.20
2008,09,29,05,14,10.10
2008,09,29,05,15,10.10
2008,09,29,05,16,10.10
2008,09,29,05,17,10.00
2008,09,29,05,18,10.00
2008,09,29,05,19,10.00
2008,09,29,05,20,9.90
2008,09,29,05,21,9.90
2008,09,29,05,22,9.90
2008,09,29,05,23,9.90
2008,09,29,05,24,9.80
2008,09,29,05,25,9.80
2008,09,29,05,26,9.70
2008,09,29,05,27,9.60
2008,09,29,05,28,9.60
2008,09,29,05,29,9.50
2008,09,29,05,30,9.40
2008,09,29,05,31,9.30
2008,09,29,05,32,9.30
2008,09,29,05,33,9.20
2008,09,29,05,34,9.20
2008,09,29,05,35,9.20
2008,09,29,05,36,9.20
2008,09,29,05,37,9.10
2008,09,29,05,38,9.10
2008,09,29,05,39,9.10
2008,09,29,05,40,9.00
2008,09,29,05,41,9.00
2008,09,29,05,42,8.90
2008,09,29,05,43,8.90
2008,09,29,05,44,8.90
2008,09,29,05,45,8.80
2008,09,29,05,46,8.80
2008,09,29,05,47,8.80
2008,09,29,05,48,8.70
2008,09,29,05,49,8.70
2008,09,29,05,50,8.70
2008,09,29,05,51,8.70
2008,09,29,05,52,8.70
2008,09,29,05,53,8.70
2008,09,29,05,54,8.70
2008,09,29,05,55,8.80
2008,09,29,05,56,8.90
2008,09,29,05,57,8.90
2008,09,29,05,58,8.90
2008,09,29,05,59,8.90
2008,09,29,06,00,8.90
2008,09,29,06,01,8.90
2008,09,29,06,02,9.00
2008,09,29,06,03,9.00
2008,09,29,06,04,9.00
2008,09,29,06,05,9.10
2008,09,29,06,06,9.10
2008,09,29,06,07,9.10
2008,09,29,06,08,9.10
2008,09,29,06,09,9.10
2008,09,29,06,10,9.10
2008,09,29,06,11,9.10
2008,09,29,06,12,9.10
2008,09,29,06,13,9.10
2008,09,29,06,14,9.10
2008,09,29,06,15,9.00
2008,09,29,06,16,9.00
2008,09,29,06,17,9.00
2008,09,29,06,18,9.00
2008,09,29,06,19,9.00
2008,09,29,06,20,9.00
2008,09,29,06,21,9.00
2008,09,29,06,22,8.90
2008,09,29,06,23,9.00
2008,09,29,06,24,9.00
2008,09,29,06,25,9.10
2008,09,29,06,26,9.10
2008,09,29,06,27,9.20
2008,09,29,06,28,9.20
2008,09,29,06,29,9.20
2008,09,29,06,30,9.20
2008,09,29,06,31,9.10
2008,09,29,06,32,9.10
2008,09,29,06,33,9.10
2008,09,29,06,34,9.10
2008,09,29,06,35,9.00
2008,09,29,06,36,9.00
2008,09,29,06,37,9.00
2008,09,29,06,38,8.90
2008,09,29,06,39,9.00
2008,09,29,06,40,9.00
2008,09,29,06,41,9.00
2008,09,29,06,42,9.00
2008,09,29,06,43,9.10
2008,09,29,06,44,9.10
2008,09,29,06,45,9.20
2008,09,29,06,46,9.20
2008,09,29,06,47,9.30
2008,09,29,06,48,9.30
2008,09,29,06,49,9.40
2008,09,29,06,50,9.40
2008,09,29,06,51,9.50
2008,09,29,06,52,9.60
2008,09,29,06,53,9.60
2008,09,29,06,54,9.60
2008,09,29,06,55,9.60
2008,09,29,06,56,9.70
2008,09,29,06,57,9.70
2008,09,29,06,58,9.70
2008,09,29,06,59,9.70
2008,09,29,07,00,9.80
2008,09,29,07,01,9.80
2008,09,29,07,02,9.80
2008,09,29,07,03,9.80
2008,09,29,07,04,9.80
2008,09,29,07,05,9.80
2008,09,29,07,06,9.80
2008,09,29,07,07,9.80
2008,09,29,07,08,9.80
2008,09,29,07,09,9.80
2008,09,29,07,10,9.80
2008,09,29,07,11,9.80
2008,09,29,07,12,9.80
2008,09,29,07,13,9.80
2008,09,29,07,14,9.80
2008,09,29,07,15,9.80
2008,09,29,07,16,9.80
2008,09,29,07,17,9.90
2008,09,29,07,18,9.90
2008,09,29,07,19,9.90
2008,09,29,07,20,9.90
2008,09,29,07,21,9.90
2008,09,29,07,22,9.90
2008,09,29,07,23,9.90
2008,09,29,07,24,9.90
2008,09,29,07,25,10.00
2008,09,29,07,26,10.10
2008,09,29,07,27,10.10
2008,09,29,07,28,10.10
2008,09,29,07,29,10.10
2008,09,29,07,30,10.10
2008,09,29,07,31,10.10
2008,09,29,07,32,10.10
2008,09,29,07,33,10.10
2008,09,29,07,34,10.10
2008,09,29,07,35,10.10
2008,09,29,07,36,10.10
2008,09,29,07,37,10.20
2008,09,29,07,38,10.20
2008,09,29,07,39,10.20
2008,09,29,07,40,10.20
2008,09,29,07,41,10.20
2008,09,29,07,42,10.20
2008,09,29,07,43,10.20
2008,09,29,07,44,10.20
2008,09,29,07,45,10.20
2008,09,29,07,46,10.20
2008,09,29,07,47,10.30
2008,09,29,07,48,10.30
2008,09,29,07,49,10.30
2008,09,29,07,50,10.30
2008,09,29,07,51,10.30
2008,09,29,07,52,10.30
2008,09,29,07,53,10.30
2008,09,29,07,54,10.40
2008,09,29,07,55,10.40
2008,09,29,07,56,10.40
2008,09,29,07,57,10.40
2008,09,29,07,58,10.40
2008,09,29,07,59,10.40
2008,09,29,08,00,10.50
2008,09,29,08,01,10.50
2008,09,29,08,02,10.60
2008,09,29,08,03,10.60
2008,09,29,08,04,10.70
2008,09,29,08,05,10.70
2008,09,29,08,06,10.70
2008,09,29,08,07,10.80
2008,09,29,08,08,10.80
2008,09,29,08,09,10.80
2008,09,29,08,10,10.90
2008,09,29,08,11,10.90
2008,09,29,08,12,10.90
2008,09,29,08,13,10.90
2008,09,29,08,14,11.00
2008,09,29,08,15,11.00
2008,09,29,08,16,11.10
2008,09,29,08,17,11.10
2008,09,29,08,18,11.10
2008,09,29,08,19,11.10
2008,09,29,08,20,11.20
2008,09,29,08,21,11.20
2008,09,29,08,22,11.20
2008,09,29,08,23,11.20
2008,09,29,08,24,11.30
2008,09,29,08,25,11.30
2008,09,29,08,26,11.30
2008,09,29,08,27,11.30
2008,09,29,08,28,11.40
2008,09,29,08,29,11.40
2008,09,29,08,30,11.40
2008,09,29,08,31,11.40
2008,09,29,08,32,11.50
2008,09,29,08,33,11.50
2008,09,29,08,34,11.60
2008,09,29,08,35,11.60
2008,09,29,08,36,11.60
2008,09,29,08,37,11.70
2008,09,29,08,38,11.70
2008,09,29,08,39,11.70
2008,09,29,08,40,11.70
2008,09,29,08,41,11.70
2008,09,29,08,42,11.70
2008,09,29,08,43,11.80
2008,09,29,08,44,11.80
2008,09,29,08,45,11.80
2008,09,29,08,46,11.80
2008,09,29,08,47,11.80
2008,09,29,08,48,11.80
2008,09,29,08,49,11.80
2008,09,29,08,50,11.90
2008,09,29,08,51,11.90
2008,09,29,08,52,11.90
2008,09,29,08,53,12.00
2008,09,29,08,54,12.00
2008,09,29,08,55,12.10
2008,09,29,08,56,12.10
2008,09,29,08,57,12.10
2008,09,29,08,58,12.20
2008,09,29,08,59,12.20
2008,09,29,09,00,12.20
2008,09,29,09,01,12.20
2008,09,29,09,02,12.30
2008,09,29,09,03,12.30
2008,09,29,09,04,12.30
2008,09,29,09,05,12.30
2008,09,29,09,06,12.30
2008,09,29,09,07,12.40
2008,09,29,09,08,12.40
2008,09,29,09,09,12.40
2008,09,29,09,10,12.50
2008,09,29,09,11,12.50
2008,09,29,09,12,12.50
2008,09,29,09,13,12.60
2008,09,29,09,14,12.60
2008,09,29,09,15,12.70
2008,09,29,09,16,12.70
2008,09,29,09,17,12.80
2008,09,29,09,18,12.80
2008,09,29,09,19,12.80
2008,09,29,09,20,12.90
2008,09,29,09,21,12.90
2008,09,29,09,22,12.90
2008,09,29,09,23,13.00
2008,09,29,09,24,13.00
2008,09,29,09,25,13.10
2008,09,29,09,26,13.20
2008,09,29,09,27,13.20
2008,09,29,09,28,13.30
2008,09,29,09,29,13.30
2008,09,29,09,30,13.40
2008,09,29,09,31,13.40
2008,09,29,09,32,13.50
2008,09,29,09,33,13.50
2008,09,29,09,34,13.60
2008,09,29,09,35,13.60
2008,09,29,09,36,13.60
2008,09,29,09,37,13.70
2008,09,29,09,38,13.80
2008,09,29,09,39,13.80
2008,09,29,09,40,13.80
2008,09,29,09,41,13.90
2008,09,29,09,42,13.90
2008,09,29,09,43,14.00
2008,09,29,09,44,14.00
2008,09,29,09,45,14.10
2008,09,29,09,46,14.10
2008,09,29,09,47,14.20
2008,09,29,09,48,14.20
2008,09,29,09,49,14.20
2008,09,29,09,50,14.30
2008,09,29,09,51,14.30
2008,09,29,09,52,14.30
2008,09,29,09,53,14.30
2008,09,29,09,54,14.30
2008,09,29,09,55,14.40
2008,09,29,09,56,14.40
2008,09,29,09,57,14.40
2008,09,29,09,58,14.40
2008,09,29,09,59,14.40
2008,09,29,10,00,14.40
2008,09,29,10,01,14.50
2008,09,29,10,02,14.50
2008,09,29,10,03,14.60
2008,09,29,10,04,14.60
2008,09,29,10,05,14.60
2008,09,29,10,06,14.60
2008,09,29,10,07,14.60
2008,09,29,10,08,14.60
2008,09,29,10,09,14.60
2008,09,29,10,10,14.60
2008,09,29,10,11,14.60
2008,09,29,10,12,14.60
2008,09,29,10,13,14.60
2008,09,29,10,14,14.60
2008,09,29,10,15,14.60
2008,09,29,10,16,14.60
2008,09,29,10,17,14.60
2008,09,29,10,18,14.60
2008,09,29,10,19,14.60
2008,09,29,10,20,14.70
2008,09,29,10,21,14.70
2008,09,29,10,22,14.70
2008,09,29,10,23,14.80
2008,09,29,10,24,14.80
2008,09,29,10,25,14.90
2008,09,29,10,26,14.90
2008,09,29,10,27,15.00
2008,09,29,10,28,15.00
2008,09,29,10,29,15.00
2008,09,29,10,30,15.00
2008,09,29,10,31,15.10
2008,09,29,10,32,15.10
2008,09,29,10,33,15.20
2008,09,29,10,34,15.20
2008,09,29,10,35,15.30
2008,09,29,10,36,15.30
2008,09,29,10,37,15.30
2008,09,29,10,38,15.40
2008,09,29,10,39,15.40
2008,09,29,10,40,15.40
2008,09,29,10,41,15.50
2008,09,29,10,42,15.50
2008,09,29,10,43,15.60
2008,09,29,10,44,15.60
2008,09,29,10,45,15.70
2008,09,29,10,46,15.80
2008,09,29,10,47,15.80
2008,09,29,10,48,15.80
2008,09,29,10,49,15.90
2008,09,29,10,50,15.90
2008,09,29,10,51,16.00
2008,09,29,10,52,16.10
2008,09,29,10,53,16.10
2008,09,29,10,54,16.20
2008,09,29,10,55,16.20
2008,09,29,10,56,16.20
2008,09,29,10,57,16.20
2008,09,29,10,58,16.20
2008,09,29,10,59,16.20
2008,09,29,11,00,16.20
2008,09,29,11,01,16.20
2008,09,29,11,02,16.20
2008,09,29,11,03,16.20
2008,09,29,11,04,16.20
2008,09,29,11,05,16.20
2008,09,29,11,06,16.20
2008,09,29,11,07,16.20
2008,09,29,11,08,16.20
2008,09,29,11,09,16.20
2008,09,29,11,10,16.20
2008,09,29,11,11,16.30
2008,09,29,11,12,16.30
2008,09,29,11,13,16.40
2008,09,29,11,14,16.40
2008,09,29,11,15,16.40
2008,09,29,11,16,16.40
2008,09,29,11,17,16.50
2008,09,29,11,18,16.60
2008,09,29,11,19,16.70
2008,09,29,11,20,16.70
2008,09,29,11,21,16.80
2008,09,29,11,22,16.80
2008,09,29,11,23,16.90
2008,09,29,11,24,17.00
2008,09,29,11,25,17.00
2008,09,29,11,26,17.10
2008,09,29,11,27,17.20
2008,09,29,11,28,17.20
2008,09,29,11,29,17.20
2008,09,29,11,30,17.20
2008,09,29,11,31,17.30
2008,09,29,11,32,17.30
2008,09,29,11,33,17.40
2008,09,29,11,34,17.40
2008,09,29,11,35,17.40
2008,09,29,11,36,17.40
2008,09,29,11,37,17.40
2008,09,29,11,38,17.50
2008,09,29,11,39,17.50
2008,09,29,11,40,17.50
2008,09,29,11,41,17.60
2008,09,29,11,42,17.60
2008,09,29,11,43,17.60
2008,09,29,11,44,17.60
2008,09,29,11,45,17.60
2008,09,29,11,46,17.60
2008,09,29,11,47,17.60
2008,09,29,11,48,17.60
2008,09,29,11,49,17.70
2008,09,29,11,50,17.70
2008,09,29,11,51,17.80
2008,09,29,11,52,17.80
2008,09,29,11,53,17.90
2008,09,29,11,54,17.90
2008,09,29,11,55,18.00
2008,09,29,11,56,18.00
2008,09,29,11,57,18.00
2008,09,29,11,58,18.10
2008,09,29,11,59,18.10
2008,09,29,12,00,18.10
2008,09,29,12,01,18.20
2008,09,29,12,02,18.30
2008,09,29,12,03,18.40
2008,09,29,12,04,18.50
2008,09,29,12,05,18.60
2008,09,29,12,06,18.70
2008,09,29,12,07,18.80
2008,09,29,12,08,18.80
2008,09,29,12,09,18.90
2008,09,29,12,10,18.90
2008,09,29,12,11,18.90
2008,09,29,12,12,18.90
2008,09,29,12,13,19.00
2008,09,29,12,14,19.00
2008,09,29,12,15,19.10
2008,09,29,12,16,19.10
2008,09,29,12,17,19.10
2008,09,29,12,18,19.10
2008,09,29,12,19,19.10
2008,09,29,12,20,19.10
2008,09,29,12,21,19.20
2008,09,29,12,22,19.20
2008,09,29,12,23,19.20
2008,09,29,12,24,19.20
2008,09,29,12,25,19.20
2008,09,29,12,26,19.20
2008,09,29,12,27,19.20
2008,09,29,12,28,19.30
2008,09,29,12,29,19.30
2008,09,29,12,30,19.40
2008,09,29,12,31,19.40
2008,09,29,12,32,19.40
2008,09,29,12,33,19.50
2008,09,29,12,34,19.50
2008,09,29,12,35,19.60
2008,09,29,12,36,19.70
2008,09,29,12,37,19.70
2008,09,29,12,38,19.70
2008,09,29,12,39,19.80
2008,09,29,12,40,19.80
2008,09,29,12,41,19.80
2008,09,29,12,42,19.90
2008,09,29,12,43,19.90
2008,09,29,12,44,20.00
2008,09,29,12,45,20.00
2008,09,29,12,46,20.10
2008,09,29,12,47,20.20
2008,09,29,12,48,20.30
2008,09,29,12,49,20.40
2008,09,29,12,50,20.40
2008,09,29,12,51,20.50
2008,09,29,12,52,20.60
2008,09,29,12,53,20.70
2008,09,29,12,54,20.80
2008,09,29,12,55,20.80
2008,09,29,12,56,20.90
2008,09,29,12,57,21.00
2008,09,29,12,58,21.10
2008,09,29,12,59,21.10
2008,09,29,13,00,21.10
2008,09,29,13,01,21.10
2008,09,29,13,02,21.00
2008,09,29,13,03,21.00
2008,09,29,13,04,20.90
2008,09,29,13,05,20.80
2008,09,29,13,06,20.80
2008,09,29,13,07,20.80
2008,09,29,13,08,20.80
2008,09,29,13,09,20.80
2008,09,29,13,10,20.80
2008,09,29,13,11,20.70
2008,09,29,13,12,20.70
2008,09,29,13,13,20.70
2008,09,29,13,14,20.70
2008,09,29,13,15,20.80
2008,09,29,13,16,20.80
2008,09,29,13,17,20.90
2008,09,29,13,18,20.90
2008,09,29,13,19,20.90
2008,09,29,13,20,20.90
2008,09,29,13,21,20.90
2008,09,29,13,22,20.90
2008,09,29,13,23,20.90
2008,09,29,13,24,20.90
2008,09,29,13,25,20.90
2008,09,29,13,26,21.00
2008,09,29,13,27,21.00
2008,09,29,13,28,20.90
2008,09,29,13,29,20.90
2008,09,29,13,30,20.90
2008,09,29,13,31,20.90
2008,09,29,13,32,20.90
2008,09,29,13,33,20.90
2008,09,29,13,34,20.90
2008,09,29,13,35,20.90
2008,09,29,13,36,20.90
2008,09,29,13,37,20.90
2008,09,29,13,38,20.90
2008,09,29,13,39,20.90
2008,09,29,13,40,21.00
2008,09,29,13,41,21.00
2008,09,29,13,42,21.10
2008,09,29,13,43,21.10
2008,09,29,13,44,21.10
2008,09,29,13,45,21.20
2008,09,29,13,46,21.20
2008,09,29,13,47,21.30
2008,09,29,13,48,21.30
2008,09,29,13,49,21.30
2008,09,29,13,50,21.30
2008,09,29,13,51,21.30
2008,09,29,13,52,21.40
2008,09,29,13,53,21.50
2008,09,29,13,54,21.60
2008,09,29,13,55,21.70
2008,09,29,13,56,21.70
2008,09,29,13,57,21.70
2008,09,29,13,58,21.70
2008,09,29,13,59,21.70
2008,09,29,14,00,21.80
2008,09,29,14,01,21.80
2008,09,29,14,02,21.80
2008,09,29,14,03,21.90
2008,09,29,14,04,22.00
2008,09,29,14,05,22.00
2008,09,29,14,06,22.10
2008,09,29,14,07,22.10
2008,09,29,14,08,22.20
2008,09,29,14,09,22.20
2008,09,29,14,10,22.20
2008,09,29,14,11,22.20
2008,09,29,14,12,22.10
2008,09,29,14,13,22.10
2008,09,29,14,14,22.10
2008,09,29,14,15,22.00
2008,09,29,14,16,22.00
2008,09,29,14,17,22.00
2008,09,29,14,18,22.00
2008,09,29,14,19,22.00
2008,09,29,14,20,22.00
2008,09,29,14,21,22.10
2008,09,29,14,22,22.10
2008,09,29,14,23,22.10
2008,09,29,14,24,22.10
2008,09,29,14,25,22.10
2008,09,29,14,26,22.10
2008,09,29,14,27,22.20
2008,09,29,14,28,22.20
2008,09,29,14,29,22.20
2008,09,29,14,30,22.20
2008,09,29,14,31,22.20
2008,09,29,14,32,22.20
2008,09,29,14,33,22.30
2008,09,29,14,34,22.30
2008,09,29,14,35,22.30
2008,09,29,14,36,22.20
2008,09,29,14,37,22.20
2008,09,29,14,38,22.20
2008,09,29,14,39,22.20
2008,09,29,14,40,22.20
2008,09,29,14,41,22.20
2008,09,29,14,42,22.20
2008,09,29,14,43,22.30
2008,09,29,14,44,22.30
2008,09,29,14,45,22.30
2008,09,29,14,46,22.30
2008,09,29,14,47,22.40
2008,09,29,14,48,22.40
2008,09,29,14,49,22.40
2008,09,29,14,50,22.50
2008,09,29,14,51,22.50
2008,09,29,14,52,22.60
2008,09,29,14,53,22.60
2008,09,29,14,54,22.60
2008,09,29,14,55,22.60
2008,09,29,14,56,22.60
2008,09,29,14,57,22.60
2008,09,29,14,58,22.60
2008,09,29,14,59,22.70
2008,09,29,15,00,22.70
2008,09,29,15,01,22.70
2008,09,29,15,02,22.70
2008,09,29,15,03,22.70
2008,09,29,15,04,22.80
2008,09,29,15,05,22.80
2008,09,29,15,06,22.80
2008,09,29,15,07,22.90
2008,09,29,15,08,22.90
2008,09,29,15,09,22.90
2008,09,29,15,10,22.90
2008,09,29,15,11,22.90
2008,09,29,15,12,22.90
2008,09,29,15,13,22.90
2008,09,29,15,14,22.90
2008,09,29,15,15,22.90
2008,09,29,15,16,22.90
2008,09,29,15,17,22.90
2008,09,29,15,18,22.80
2008,09,29,15,19,22.90
2008,09,29,15,20,22.90
2008,09,29,15,21,22.90
2008,09,29,15,22,22.90
2008,09,29,15,23,23.00
2008,09,29,15,24,23.00
2008,09,29,15,25,23.10
2008,09,29,15,26,23.10
2008,09,29,15,27,23.10
2008,09,29,15,28,23.10
2008,09,29,15,29,23.10
2008,09,29,15,30,23.10
2008,09,29,15,31,23.10
2008,09,29,15,32,23.10
2008,09,29,15,33,23.10
2008,09,29,15,34,23.20
2008,09,29,15,35,23.20
2008,09,29,15,36,23.10
2008,09,29,15,37,23.10
2008,09,29,15,38,23.10
2008,09,29,15,39,23.10
2008,09,29,15,40,23.10
2008,09,29,15,41,23.20
2008,09,29,15,42,23.20
2008,09,29,15,43,23.20
2008,09,29,15,44,23.20
2008,09,29,15,45,23.20
2008,09,29,15,46,23.30
2008,09,29,15,47,23.30
2008,09,29,15,48,23.30
2008,09,29,15,49,23.30
2008,09,29,15,50,23.30
2008,09,29,15,51,23.30
2008,09,29,15,52,23.20
2008,09,29,15,53,23.20
2008,09,29,15,54,23.30
2008,09,29,15,55,23.30
2008,09,29,15,56,23.30
2008,09,29,15,57,23.30
2008,09,29,15,58,23.30
2008,09,29,15,59,23.30
2008,09,29,16,00,23.30
2008,09,29,16,01,23.30
2008,09,29,16,02,23.40
2008,09,29,16,03,23.40
2008,09,29,16,04,23.40
2008,09,29,16,05,23.40
2008,09,29,16,06,23.40
2008,09,29,16,07,23.40
2008,09,29,16,08,23.40
2008,09,29,16,09,23.40
2008,09,29,16,10,23.40
2008,09,29,16,11,23.40
2008,09,29,16,12,23.40
2008,09,29,16,13,23.40
2008,09,29,16,14,23.40
2008,09,29,16,15,23.40
2008,09,29,16,16,23.40
2008,09,29,16,17,23.40
2008,09,29,16,18,23.40
2008,09,29,16,19,23.40
2008,09,29,16,20,23.40
2008,09,29,16,21,23.40
2008,09,29,16,22,23.40
2008,09,29,16,23,23.40
2008,09,29,16,24,23.40
2008,09,29,16,25,23.40
2008,09,29,16,26,23.40
2008,09,29,16,27,23.40
2008,09,29,16,28,23.40
2008,09,29,16,29,23.40
2008,09,29,16,30,23.40
2008,09,29,16,31,23.40
2008,09,29,16,32,23.40
2008,09,29,16,33,23.40
2008,09,29,16,34,23.40
2008,09,29,16,35,23.40
2008,09,29,16,36,23.50
2008,09,29,16,37,23.50
2008,09,29,16,38,23.50
2008,09,29,16,39,23.50
2008,09,29,16,40,23.50
2008,09,29,16,41,23.60
2008,09,29,16,42,23.60
2008,09,29,16,43,23.60
2008,09,29,16,44,23.70
2008,09,29,16,45,23.70
2008,09,29,16,46,23.70
2008,09,29,16,47,23.70
2008,09,29,16,48,23.70
2008,09,29,16,49,23.70
2008,09,29,16,50,23.70
2008,09,29,16,51,23.70
2008,09,29,16,52,23.60
2008,09,29,16,53,23.60
2008,09,29,16,54,23.60
2008,09,29,16,55,23.50
2008,09,29,16,56,23.40
2008,09,29,16,57,23.40
2008,09,29,16,58,23.40
2008,09,29,16,59,23.40
2008,09,29,17,00,23.40
2008,09,29,17,01,23.40
2008,09,29,17,02,23.40
2008,09,29,17,03,23.30
2008,09,29,17,04,23.30
2008,09,29,17,05,23.20
2008,09,29,17,06,23.20
2008,09,29,17,07,23.10
2008,09,29,17,08,23.10
2008,09,29,17,09,23.00
2008,09,29,17,10,23.00
2008,09,29,17,11,23.00
2008,09,29,17,12,22.90
2008,09,29,17,13,22.90
2008,09,29,17,14,22.90
2008,09,29,17,15,22.90
2008,09,29,17,16,22.80
2008,09,29,17,17,22.80
2008,09,29,17,18,22.70
2008,09,29,17,19,22.70
2008,09,29,17,20,22.60
2008,09,29,17,21,22.60
2008,09,29,17,22,22.50
2008,09,29,17,23,22.50
2008,09,29,17,24,22.40
2008,09,29,17,25,22.30
2008,09,29,17,26,22.20
2008,09,29,17,27,22.10
2008,09,29,17,28,22.10
2008,09,29,17,29,22.00
2008,09,29,17,30,21.90
2008,09,29,17,31,21.80
2008,09,29,17,32,21.80
2008,09,29,17,33,21.80
2008,09,29,17,34,21.70
2008,09,29,17,35,21.70
2008,09,29,17,36,21.70